TimeEDT,TemperatureF,Dew PointF,Humidity,Sea Level PressureIn,VisibilityMPH,Wind Direction,Wind SpeedMPH,Gust SpeedMPH,PrecipitationIn,Events,Conditions,WindDirDegrees,DateUTC
12:21 AM,75.2,71.6,89,30.18,10.0,Calm,Calm,-,N/A,,Mostly Cloudy,0,2013-06-24 04:21:00
12:53 AM,75.0,73.0,94,30.17,10.0,Calm,Calm,-,N/A,,Overcast,0,2013-06-24 04:53:00
1:53 AM,75.0,73.0,94,30.18,10.0,Calm,Calm,-,N/A,,Overcast,0,2013-06-24 05:53:00
2:20 AM,75.2,73.4,94,30.19,10.0,Calm,Calm,-,N/A,,Overcast,0,2013-06-24 06:20:00
2:39 AM,73.4,73.4,100,30.19,10.0,East,3.5,-,N/A,,Mostly Cloudy,100,2013-06-24 06:39:00
2:53 AM,73.9,73.0,97,30.18,10.0,Calm,Calm,-,N/A,,Mostly Cloudy,0,2013-06-24 06:53:00
3:00 AM,73.4,73.4,100,30.20,10.0,Calm,Calm,-,N/A,,Mostly Cloudy,0,2013-06-24 07:00:00
3:39 AM,75.2,73.4,94,30.20,7.0,Calm,Calm,-,0.01,Rain,Light Rain,0,2013-06-24 07:39:00
3:53 AM,75.0,73.0,94,30.18,8.0,Calm,Calm,-,0.01,Rain,Light Rain,0,2013-06-24 07:53:00
4:02 AM,73.4,73.4,100,30.19,9.0,Calm,Calm,-,0.00,,Overcast,0,2013-06-24 08:02:00
4:53 AM,73.9,73.0,97,30.18,9.0,Calm,Calm,-,0.01,,Overcast,0,2013-06-24 08:53:00
5:20 AM,75.2,73.4,94,30.19,9.0,Calm,Calm,-,N/A,,Overcast,0,2013-06-24 09:20:00
5:31 AM,73.4,73.4,100,30.19,7.0,Calm,Calm,-,N/A,,Overcast,0,2013-06-24 09:31:00
5:53 AM,73.9,73.0,97,30.17,6.0,Calm,Calm,-,N/A,,Overcast,0,2013-06-24 09:53:00
6:06 AM,73.4,73.4,100,30.19,4.0,Calm,Calm,-,N/A,,Overcast,0,2013-06-24 10:06:00
6:14 AM,73.4,73.4,100,30.20,4.0,Calm,Calm,-,N/A,,Overcast,0,2013-06-24 10:14:00
6:53 AM,75.0,73.0,94,30.18,9.0,SE,5.8,-,0.00,,Mostly Cloudy,130,2013-06-24 10:53:00
7:53 AM,75.0,73.0,94,30.19,10.0,South,3.5,-,0.00,,Overcast,190,2013-06-24 11:53:00
8:18 AM,75.2,73.4,94,30.21,10.0,South,5.8,-,N/A,,Scattered Clouds,190,2013-06-24 12:18:00
8:53 AM,78.1,73.9,87,30.20,10.0,SW,6.9,-,N/A,,Mostly Cloudy,230,2013-06-24 12:53:00
9:10 AM,78.8,73.4,83,30.21,10.0,SW,3.5,-,N/A,,Overcast,220,2013-06-24 13:10:00
9:26 AM,78.8,73.4,83,30.21,10.0,Calm,Calm,-,N/A,,Scattered Clouds,0,2013-06-24 13:26:00
9:53 AM,81.0,73.0,77,30.20,10.0,WSW,8.1,-,N/A,,Scattered Clouds,240,2013-06-24 13:53:00
10:53 AM,84.0,71.1,65,30.20,10.0,West,8.1,-,N/A,,Scattered Clouds,260,2013-06-24 14:53:00
11:53 AM,84.9,70.0,61,30.19,10.0,SSW,5.8,-,N/A,,Scattered Clouds,200,2013-06-24 15:53:00
12:53 PM,82.9,71.1,67,30.19,10.0,West,6.9,-,N/A,,Mostly Cloudy,280,2013-06-24 16:53:00
1:53 PM,86.0,69.8,58,30.16,10.0,SSW,9.2,-,N/A,,Mostly Cloudy,210,2013-06-24 17:53:00
2:37 PM,80.6,66.2,61,30.18,10.0,SW,10.4,-,N/A,,Clear,230,2013-06-24 18:37:00
2:53 PM,78.8,69.8,74,30.15,10.0,SSW,5.8,-,N/A,,Scattered Clouds,210,2013-06-24 18:53:00
3:53 PM,79.0,71.1,77,30.16,10.0,South,8.1,-,N/A,,Clear,170,2013-06-24 19:53:00
4:53 PM,80.1,69.1,69,30.14,10.0,SSW,3.5,-,N/A,,Partly Cloudy,210,2013-06-24 20:53:00
5:53 PM,81.0,71.1,72,30.11,10.0,SW,5.8,-,N/A,,Partly Cloudy,230,2013-06-24 21:53:00
6:53 PM,81.0,71.1,72,30.11,10.0,South,9.2,-,N/A,,Clear,180,2013-06-24 22:53:00
7:53 PM,79.0,72.0,79,30.12,10.0,SW,9.2,-,N/A,,Clear,220,2013-06-24 23:53:00
8:53 PM,77.0,69.1,76,30.10,10.0,SW,10.4,-,N/A,,Clear,220,2013-06-25 00:53:00
9:53 PM,75.9,66.9,74,30.12,10.0,WSW,4.6,-,N/A,,Clear,250,2013-06-25 01:53:00
10:53 PM,72.0,68.0,87,30.14,10.0,SSW,3.5,-,N/A,,Clear,210,2013-06-25 02:53:00
11:53 PM,73.0,68.0,84,30.13,10.0,SW,5.8,-,N/A,,Clear,230,2013-06-25 03:53:00